Luverne, MN

4:36 AM CDT on September 23, 2017 (GMT -0500)
Luverne

Weather History for KLYV - October, 2012

Change the Weather History Date:

Monday, October 22, 2012

  Actual Average (KPQN) Record (KPQN)
Temperature  
Mean Temperature 50 °F -  
Max Temperature 55 °F 53 °F 78 °F (2003)
Min Temperature 44 °F 34 °F 24 °F (2006)
Degree Days  
Heating Degree Days 16    
Moisture  
Dew Point 45 °F    
Average Humidity 81    
Maximum Humidity 93    
Minimum Humidity 72    
Precipitation  
Precipitation 0.00 in - - ()
Sea Level Pressure  
Sea Level Pressure 29.87 in    
Wind  
Wind Speed 10 mph (NE)    
Max Wind Speed 18 mph    
Max Gust Speed 23 mph    
Visibility 9 miles    
Events      
Averages and records for this station are not official NWS values.
T = Trace of Precipitation, MM = Missing Value Source: NWS Daily Summary

Daily Weather History Graph

Daily Weather History Graph

Search for Another Location

Airport or City:

Trip Planner

Search our weather history database for the weather conditions in past years. The results will help you decide how hot, cold, wet, or windy it might be!

Date:

Astronomy

Oct. 22, 2012 Rise Set
Actual Time 7:48 AM CDT 6:29 PM CDT
Civil Twilight 7:19 AM CDT 6:58 PM CDT
Nautical Twilight 6:45 AM CDT 7:32 PM CDT
Astronomical Twilight 6:12 AM CDT 8:05 PM CDT
Moon 2:49 PM CDT (10/22) 12:23 AM CDT (10/22)
Length of Visible Light 11h 39m
Length of Day
10h 41m
First Quarter, 56% of the Moon is Illuminated
Oct 22
First Quarter
Oct 29
Full
Nov 6
Last Quarter
Nov 13
New
Nov 20
First Quarter

Hourly Weather History & Observations

Time (CDT) Temp. Windchill Dew Point Humidity Pressure Visibility Wind Dir Wind Speed Gust Speed Precip Events Conditions
12:14 AM 48.2 °F - 42.8 °F 82% 29.89 in 10.0 mi NE 10.4 mph - N/A   Mostly Cloudy
12:55 AM 48.2 °F - 42.8 °F 82% 29.89 in 10.0 mi NNE 6.9 mph - N/A   Clear
1:34 AM 48.2 °F - 42.8 °F 82% 29.89 in 10.0 mi NE 11.5 mph 17.3 mph N/A   Clear
1:54 AM 48.2 °F - 42.8 °F 82% 29.89 in 10.0 mi NE 9.2 mph - N/A   Mostly Cloudy
2:14 AM 46.4 °F 41.9 °F 42.8 °F 87% 29.88 in 7.0 mi NNE 9.2 mph - N/A   Scattered Clouds
2:35 AM 46.4 °F 43.5 °F 42.8 °F 87% 29.88 in 7.0 mi NE 5.8 mph - N/A   Clear
2:54 AM 46.4 °F 42.4 °F 42.8 °F 87% 29.88 in 7.0 mi NNE 8.1 mph - N/A   Clear
3:14 AM 46.4 °F 42.4 °F 42.8 °F 87% 29.87 in 7.0 mi NNE 8.1 mph - N/A   Scattered Clouds
3:54 AM 46.4 °F 41.9 °F 42.8 °F 87% 29.87 in 7.0 mi NNE 9.2 mph 16.1 mph N/A   Scattered Clouds
4:14 AM 44.6 °F 38.8 °F 42.8 °F 93% 29.87 in 7.0 mi NE 11.5 mph 20.7 mph N/A   Clear
4:35 AM 44.6 °F 37.4 °F 42.8 °F 93% 29.87 in 7.0 mi NE 16.1 mph 20.7 mph N/A   Clear
4:54 AM 44.6 °F 38.4 °F 42.8 °F 93% 29.87 in 7.0 mi NE 12.7 mph - N/A   Clear
5:14 AM 44.6 °F 39.2 °F 42.8 °F 93% 29.88 in 7.0 mi NE 10.4 mph - N/A   Clear
5:34 AM 44.6 °F 40.2 °F 42.8 °F 93% 29.89 in 7.0 mi NNE 8.1 mph - N/A   Clear
5:54 AM 44.6 °F 40.2 °F 42.8 °F 93% 29.89 in 7.0 mi NE 8.1 mph - N/A   Mostly Cloudy
6:15 AM 44.6 °F 40.2 °F 42.8 °F 93% 29.89 in 7.0 mi NNE 8.1 mph - N/A   Mostly Cloudy
6:34 AM 44.6 °F 39.7 °F 42.8 °F 93% 29.88 in 7.0 mi NNE 9.2 mph - N/A   Mostly Cloudy
6:54 AM 44.6 °F 40.2 °F 41.0 °F 87% 29.89 in 7.0 mi North 8.1 mph - N/A   Scattered Clouds
7:15 AM 44.6 °F 40.7 °F 42.8 °F 93% 29.90 in 10.0 mi NNE 6.9 mph - N/A   Clear
7:34 AM 44.6 °F 40.7 °F 42.8 °F 93% 29.92 in 10.0 mi NNE 6.9 mph - N/A   Mostly Cloudy
7:54 AM 44.6 °F 40.7 °F 42.8 °F 93% 29.92 in 10.0 mi NNE 6.9 mph - N/A   Overcast
8:15 AM 44.6 °F 39.7 °F 41.0 °F 87% 29.92 in 10.0 mi NNE 9.2 mph - N/A   Mostly Cloudy
8:34 AM 44.6 °F 39.7 °F 41.0 °F 87% 29.92 in 7.0 mi NE 9.2 mph - N/A   Scattered Clouds
8:54 AM 44.6 °F 39.2 °F 42.8 °F 93% 29.92 in 10.0 mi NNE 10.4 mph - N/A   Mostly Cloudy
9:15 AM 46.4 °F 41.5 °F 42.8 °F 87% 29.91 in 10.0 mi NNE 10.4 mph - N/A   Overcast
9:34 AM 46.4 °F 40.4 °F 42.8 °F 87% 29.92 in 10.0 mi NE 13.8 mph 17.3 mph N/A   Overcast
9:54 AM 46.4 °F 40.7 °F 42.8 °F 87% 29.91 in 10.0 mi NE 12.7 mph 21.9 mph N/A   Scattered Clouds
10:15 AM 48.2 °F - 42.8 °F 82% 29.91 in 10.0 mi NE 12.7 mph - N/A   Clear
10:34 AM 51.8 °F - 44.6 °F 76% 29.90 in 10.0 mi NNE 15.0 mph 18.4 mph N/A   Clear
10:54 AM 51.8 °F - 44.6 °F 76% 29.90 in 10.0 mi NE 18.4 mph 21.9 mph N/A   Clear
11:15 AM 53.6 °F - 44.6 °F 72% 29.90 in 10.0 mi NE 15.0 mph 23.0 mph N/A   Clear
11:34 AM 53.6 °F - 44.6 °F 72% 29.89 in 10.0 mi NE 15.0 mph - N/A   Clear
11:54 AM 53.6 °F - 44.6 °F 72% 29.90 in 10.0 mi NE 12.7 mph 17.3 mph N/A   Mostly Cloudy
12:15 PM 53.6 °F - 44.6 °F 72% 29.90 in 10.0 mi NE 13.8 mph 20.7 mph N/A   Overcast
12:34 PM 53.6 °F - 46.4 °F 77% 29.90 in 10.0 mi NE 12.7 mph - N/A   Overcast
12:54 PM 53.6 °F - 44.6 °F 72% 29.89 in 10.0 mi NNE 12.7 mph 23.0 mph N/A   Overcast
1:14 PM 53.6 °F - 46.4 °F 77% 29.88 in 10.0 mi NE 13.8 mph 19.6 mph N/A   Overcast
1:34 PM 53.6 °F - 46.4 °F 77% 29.87 in 10.0 mi NE 13.8 mph - N/A   Overcast
1:54 PM 53.6 °F - 46.4 °F 77% 29.87 in 10.0 mi ENE 12.7 mph 21.9 mph N/A   Overcast
2:15 PM 55.4 °F - 46.4 °F 72% 29.86 in 10.0 mi NE 12.7 mph 17.3 mph N/A   Overcast
2:34 PM 55.4 °F - 46.4 °F 72% 29.85 in 10.0 mi ENE 13.8 mph 17.3 mph N/A   Overcast
2:54 PM 55.4 °F - 46.4 °F 72% 29.85 in 10.0 mi NE 15.0 mph - N/A   Overcast
3:15 PM 55.4 °F - 46.4 °F 72% 29.85 in 10.0 mi NE 10.4 mph 18.4 mph N/A   Overcast
3:34 PM 55.4 °F - 46.4 °F 72% 29.85 in 10.0 mi ENE 9.2 mph 16.1 mph N/A   Overcast
3:54 PM 55.4 °F - 46.4 °F 72% 29.85 in 10.0 mi ENE 13.8 mph 17.3 mph N/A   Overcast
4:14 PM 55.4 °F - 46.4 °F 72% 29.85 in 10.0 mi ENE 10.4 mph - N/A   Overcast
4:34 PM 55.4 °F - 46.4 °F 72% 29.85 in 10.0 mi NE 9.2 mph - N/A   Overcast
4:54 PM 55.4 °F - 46.4 °F 72% 29.85 in 10.0 mi ENE 11.5 mph 16.1 mph N/A   Overcast
5:14 PM 55.4 °F - 48.2 °F 77% 29.85 in 10.0 mi NE 10.4 mph - N/A   Overcast
5:34 PM 55.4 °F - 48.2 °F 77% 29.84 in 10.0 mi ENE 8.1 mph - N/A   Overcast
5:54 PM 55.4 °F - 48.2 °F 77% 29.84 in 10.0 mi ENE 10.4 mph 16.1 mph N/A   Overcast
6:14 PM 55.4 °F - 46.4 °F 72% 29.84 in 10.0 mi ENE 9.2 mph - N/A   Overcast
6:34 PM 55.4 °F - 48.2 °F 77% 29.84 in 10.0 mi ENE 9.2 mph - N/A   Overcast
6:54 PM 55.4 °F - 46.4 °F 72% 29.84 in 10.0 mi ENE 9.2 mph - N/A   Overcast
7:14 PM 55.4 °F - 48.2 °F 77% 29.84 in 10.0 mi ENE 8.1 mph - N/A   Overcast
7:35 PM 55.4 °F - 46.4 °F 72% 29.85 in 10.0 mi ENE 6.9 mph - N/A   Overcast
7:54 PM 55.4 °F - 46.4 °F 72% 29.84 in 10.0 mi NE 6.9 mph - N/A   Overcast
8:14 PM 55.4 °F - 46.4 °F 72% 29.84 in 10.0 mi NE 5.8 mph - N/A   Overcast
8:35 PM 55.4 °F - 48.2 °F 77% 29.83 in 10.0 mi NE 6.9 mph - N/A   Overcast
8:54 PM 55.4 °F - 48.2 °F 77% 29.82 in 10.0 mi ENE 8.1 mph - N/A   Overcast
9:14 PM 55.4 °F - 48.2 °F 77% 29.81 in 10.0 mi ENE 8.1 mph - N/A   Mostly Cloudy
9:34 PM 53.6 °F - 48.2 °F 82% 29.81 in 10.0 mi NE 6.9 mph - N/A   Scattered Clouds
9:54 PM 53.6 °F - 48.2 °F 82% 29.81 in 10.0 mi NE 5.8 mph - N/A   Scattered Clouds
10:15 PM 53.6 °F - 48.2 °F 82% 29.80 in 10.0 mi ENE 8.1 mph - N/A   Mostly Cloudy
10:34 PM 55.4 °F - 50.0 °F 82% 29.80 in 10.0 mi ENE 6.9 mph - N/A   Mostly Cloudy
10:54 PM 55.4 °F - 50.0 °F 82% 29.79 in 7.0 mi NE 8.1 mph - N/A   Mostly Cloudy
11:14 PM 55.4 °F - 50.0 °F 82% 29.78 in 7.0 mi ENE 5.8 mph - N/A   Overcast
11:34 PM 55.4 °F - 50.0 °F 82% 29.78 in 7.0 mi NE 6.9 mph - N/A   Overcast
11:54 PM 55.4 °F - 51.8 °F 88% 29.78 in 5.0 mi NE 4.6 mph - N/A   Overcast